DW7995 Weather Reports


Display with metric or nautical units.
time (UTC)temp
F
wind
direction
speed
MPH
gust
MPH
rain 1hr
in
rain 24hr
in
rain mn
in
humidity
%
barometer
mb
20260507020540 58 0 0.0 0.0 0.00 0.00 0.00 33 1021.2
20260507020051 59 0 0.0 0.0 0.00 0.00 0.00 32 1021.2
20260507015539 59 0 0.0 0.0 0.00 0.00 0.00 30 1021.2
20260507015040 60 0 0.0 0.0 0.00 0.00 0.00 29 1021.2
20260507014549 61 0 0.0 0.0 0.00 0.00 0.00 29 1021.2
20260507014040 63 0 0.0 0.0 0.00 0.00 0.00 28 1021.2
20260507013539 64 0 0.0 0.0 0.00 0.00 0.00 27 1021.2
20260507013058 65 0 0.0 0.0 0.00 0.00 0.00 24 1021.2
20260507012539 67 0 0.0 0.0 0.00 0.00 0.00 23 1021.2
20260507012040 67 0 0.0 0.0 0.00 0.00 0.00 22 1021.2
20260507011545 68 0 0.0 0.0 0.00 0.00 0.00 21 1021.2
20260507011039 69 0 0.0 3.0 0.00 0.00 0.00 21 1021.2
20260507010539 69 0 0.0 3.0 0.00 0.00 0.00 20 1021.2
20260507010048 70 328 0.0 5.0 0.00 0.00 0.00 20 1021.2
20260507005541 72 72 0.0 5.0 0.00 0.00 0.00 19 1021.2
20260507005040 73 346 0.0 2.0 0.00 0.00 0.00 19 1021.2
20260507004549 73 0 0.0 6.0 0.00 0.00 0.00 18 1021.2
20260507004040 73 0 0.0 6.0 0.00 0.00 0.00 18 1021.2
20260507003541 73 240 2.0 6.0 0.00 0.00 0.00 18 1021.2
20260507003047 73 345 0.0 5.0 0.00 0.00 0.00 18 1021.2
20260507002540 73 0 0.0 7.0 0.00 0.00 0.00 18 1021.2
20260507002040 74 275 2.0 7.0 0.00 0.00 0.00 18 1021.2
20260507001610 74 0 0.0 7.0 0.00 0.00 0.00 17 1021.2
20260507001039 74 204 0.0 9.0 0.00 0.00 0.00 17 1021.2
20260507000540 73 0 1.0 9.0 0.00 0.00 0.00 17 1021.2
20260507000048 73 214 3.0 9.0 0.00 0.00 0.00 17 1021.2
20260506235539 74 308 1.0 6.0 0.00 0.00 0.00 18 1021.2
20260506235040 74 279 1.0 9.0 0.00 0.00 0.00 19 1021.2
20260506234556 74 0 1.0 13.0 0.00 0.00 0.00 18 1021.2
20260506234039 74 226 6.0 13.0 0.00 0.00 0.00 18 1021.2
20260506233541 74 0 3.0 10.0 0.00 0.00 0.00 20 1021.2
20260506233053 73 0 0.0 12.0 0.00 0.00 0.00 19 1021.2
20260506232539 73 359 3.0 12.0 0.00 0.00 0.00 20 1021.2
20260506232040 73 286 1.0 11.0 0.00 0.00 0.00 19 1021.2
20260506231552 74 257 3.0 13.0 0.00 0.00 0.00 18 1021.2
20260506231039 74 210 4.0 13.0 0.00 0.00 0.00 18 1021.2
20260506230539 74 231 4.0 10.0 0.00 0.00 0.00 18 1021.2
20260506230042 74 247 4.0 10.0 0.00 0.00 0.00 19 1021.2
20260506225543 75 283 0.0 8.0 0.00 0.00 0.00 19 1021.2
20260506225041 74 0 0.0 8.0 0.00 0.00 0.00 21 1021.2
20260506224605 74 222 2.0 10.0 0.00 0.00 0.00 21 1021.2
20260506224039 74 0 2.0 12.0 0.00 0.00 0.00 20 1021.2
20260506223540 74 196 2.0 12.0 0.00 0.00 0.00 22 1021.2
20260506223043 74 203 4.0 11.0 0.00 0.00 0.00 21 1021.2
20260506222541 73 0 1.0 10.0 0.00 0.00 0.00 22 1021.2
20260506222040 73 226 2.0 13.0 0.00 0.00 0.00 21 1021.2
20260506221546 73 230 4.0 13.0 0.00 0.00 0.00 21 1021.2
20260506221039 73 283 6.0 13.0 0.00 0.00 0.00 22 1021.2
20260506220539 73 261 1.0 13.0 0.00 0.00 0.00 22 1021.2
20260506215541 73 226 5.0 14.0 0.00 0.00 0.00 21 1021.2
20260506215041 74 212 8.0 14.0 0.00 0.00 0.00 21 1021.2
20260506214545 75 240 5.0 12.0 0.00 0.00 0.00 21 1021.2
20260506214039 74 191 1.0 13.0 0.00 0.00 0.00 22 1021.2
20260506213539 74 216 4.0 13.0 0.00 0.00 0.00 22 1021.2
20260506213049 74 239 4.0 15.0 0.00 0.00 0.00 22 1021.2
20260506212540 75 244 7.0 15.0 0.00 0.00 0.00 22 1021.2
20260506212040 76 206 5.0 14.0 0.00 0.00 0.00 21 1021.2
20260506211554 76 15 1.0 11.0 0.00 0.00 0.00 20 1021.2
20260506211040 75 316 3.0 11.0 0.00 0.00 0.00 21 1021.2
20260506210540 75 0 2.0 9.0 0.00 0.00 0.00 21 1021.2
20260506210047 74 299 4.0 8.0 0.00 0.00 0.00 21 1021.2
20260506205539 74 319 2.0 12.0 0.00 0.00 0.00 21 1021.2
20260506205039 74 196 4.0 13.0 0.00 0.00 0.00 19 1021.2
20260506204545 74 233 3.0 13.0 0.00 0.00 0.00 22 1021.2
20260506204039 74 183 5.0 13.0 0.00 0.00 0.00 21 1021.2
20260506203540 74 191 2.0 14.0 0.00 0.00 0.00 22 1021.2
20260506203058 73 314 7.0 14.0 0.00 0.00 0.00 21 1021.2
20260506202541 73 229 4.0 14.0 0.00 0.00 0.00 20 1021.2
20260506202039 73 241 6.0 12.0 0.00 0.00 0.00 22 1021.2
20260506201551 73 0 4.0 12.0 0.00 0.00 0.00 22 1021.2
20260506201040 72 221 5.0 11.0 0.00 0.00 0.00 23 1021.2
20260506200539 72 311 5.0 11.0 0.00 0.00 0.00 23 1021.2
20260506200054 72 219 4.0 9.0 0.00 0.00 0.00 23 1021.2
20260506195540 71 160 4.0 9.0 0.00 0.00 0.00 24 1021.2
20260506195041 70 145 2.0 7.0 0.00 0.00 0.00 25 1021.2
20260506194553 70 186 1.0 8.0 0.00 0.00 0.00 24 1021.2
20260506194040 70 249 2.0 9.0 0.00 0.00 0.00 24 1021.2
20260506193540 70 349 4.0 12.0 0.00 0.00 0.00 25 1021.2
20260506193052 70 234 3.0 12.0 0.00 0.00 0.00 25 1021.2
20260506192540 70 213 4.0 10.0 0.00 0.00 0.00 24 1021.2
20260506192040 71 218 4.0 10.0 0.00 0.00 0.00 23 1021.2
20260506191548 70 196 4.0 13.0 0.00 0.00 0.00 24 1021.2
20260506191040 70 217 4.0 14.0 0.00 0.00 0.00 22 1021.2
20260506190542 70 263 9.0 14.0 0.00 0.00 0.00 22 1021.2
20260506190045 71 183 4.0 13.0 0.00 0.00 0.00 23 1021.2
20260506185539 70 253 8.0 13.0 0.00 0.00 0.00 25 1021.2
20260506185040 70 246 4.0 10.0 0.00 0.00 0.00 25 1021.2
20260506184543 70 348 3.0 9.0 0.00 0.00 0.00 27 1021.2
20260506184040 70 317 3.0 11.0 0.00 0.00 0.00 25 1021.2
20260506183543 70 328 2.0 14.0 0.00 0.00 0.00 27 1021.2
20260506183058 69 204 5.0 14.0 0.00 0.00 0.00 25 1021.2
20260506182540 70 226 3.0 11.0 0.00 0.00 0.00 27 1021.2
20260506182039 69 295 5.0 11.0 0.00 0.00 0.00 28 1021.2
20260506181559 69 212 4.0 11.0 0.00 0.00 0.00 28 1021.2
20260506181040 69 278 4.0 11.0 0.00 0.00 0.00 28 1021.2
20260506180541 69 203 3.0 9.0 0.00 0.00 0.00 28 1021.2
20260506180048 69 295 1.0 8.0 0.00 0.00 0.00 29 1021.2
20260506175540 69 221 3.0 10.0 0.00 0.00 0.00 30 1021.2
20260506175039 68 327 3.0 10.0 0.00 0.00 0.00 32 1021.2
20260506174545 68 223 4.0 10.0 0.00 0.00 0.00 31 1021.2
20260506174039 68 230 4.0 13.0 0.00 0.00 0.00 31 1021.2
20260506173537 68 345 4.0 13.0 0.00 0.00 0.00 32 1021.2
20260506173107 67 90 3.0 14.0 0.00 0.00 0.00 33 1021.2
20260506172538 67 345 4.0 14.0 0.00 0.00 0.00 32 1021.2
20260506172037 67 261 2.0 10.0 0.00 0.00 0.00 33 1021.2
20260506171556 68 17 4.0 10.0 0.00 0.00 0.00 30 1021.2
20260506171038 68 316 2.0 9.0 0.00 0.00 0.00 33 1021.2
20260506170538 67 303 3.0 9.0 0.00 0.00 0.00 34 1021.2
20260506170059 67 276 4.0 9.0 0.00 0.00 0.00 34 1021.2
20260506165538 66 321 4.0 9.0 0.00 0.00 0.00 34 1021.2
20260506165038 66 239 3.0 8.0 0.00 0.00 0.00 34 1021.2
20260506164552 66 313 3.0 10.0 0.00 0.00 0.00 35 1021.2
20260506164037 65 319 3.0 10.0 0.00 0.00 0.00 34 1021.2
20260506163539 65 339 3.0 11.0 0.00 0.00 0.00 36 1021.2
20260506163054 65 0 3.0 12.0 0.00 0.00 0.00 35 1021.2
20260506162537 64 229 3.0 12.0 0.00 0.00 0.00 36 1021.2
20260506162037 65 221 5.0 11.0 0.00 0.00 0.00 35 1021.2
20260506161550 64 331 2.0 9.0 0.00 0.00 0.00 35 1021.2
20260506161037 64 285 3.0 7.0 0.00 0.00 0.00 34 1021.2
20260506160537 64 277 3.0 9.0 0.00 0.00 0.00 34 1021.2
20260506160108 64 307 3.0 9.0 0.00 0.00 0.00 34 1021.2
20260506155538 64 343 1.0 9.0 0.00 0.00 0.00 35 1021.2
20260506155038 63 285 1.0 9.0 0.00 0.00 0.00 34 1021.2
20260506154558 63 28 2.0 9.0 0.00 0.00 0.00 34 1021.2
20260506154040 63 283 2.0 9.0 0.00 0.00 0.00 34 1021.2
20260506153540 63 321 2.0 6.0 0.00 0.00 0.00 34 1021.2
20260506153053 63 338 2.0 6.0 0.00 0.00 0.00 34 1021.2
20260506152540 63 345 1.0 9.0 0.00 0.00 0.00 34 1021.2
20260506152039 63 333 2.0 9.0 0.00 0.00 0.00 33 1021.2
20260506151547 63 0 2.0 6.0 0.00 0.00 0.00 34 1021.2
20260506151037 62 315 2.0 5.0 0.00 0.00 0.00 34 1021.2
20260506150537 62 248 0.0 5.0 0.00 0.00 0.00 34 1021.2
20260506150057 62 339 2.0 5.0 0.00 0.00 0.00 33 1021.2
20260506145538 62 346 1.0 6.0 0.00 0.00 0.00 33 1021.2
20260506145038 62 330 1.0 6.0 0.00 0.00 0.00 33 1021.2
20260506144552 62 25 1.0 4.0 0.00 0.00 0.00 33 1021.2
20260506144039 62 0 1.0 4.0 0.00 0.00 0.00 34 1021.2
20260506143539 62 295 1.0 6.0 0.00 0.00 0.00 34 1021.2
20260506143051 62 0 0.0 6.0 0.00 0.00 0.00 36 1021.2
20260506142539 61 0 1.0 6.0 0.00 0.00 0.00 37 1021.2
20260506142042 61 0 0.0 0.0 0.00 0.00 0.00 38 1021.2
20260506141545 61 0 0.0 6.0 0.00 0.00 0.00 38 1021.2
20260506141039 61 0 0.0 6.0 0.00 0.00 0.00 38 1021.2
20260506140537 61 229 2.0 6.0 0.00 0.00 0.00 37 1021.2
20260506140049 60 0 0.0 5.0 0.00 0.00 0.00 38 1021.2
20260506135538 60 0 0.0 5.0 0.00 0.00 0.00 39 1021.2
20260506135040 60 0 1.0 5.0 0.00 0.00 0.00 38 1021.2
20260506134551 60 0 0.0 4.0 0.00 0.00 0.00 39 1021.2
20260506134040 60 0 0.0 4.0 0.00 0.00 0.00 39 1021.2
20260506133541 60 119 0.0 4.0 0.00 0.00 0.00 40 1021.2
20260506133048 59 283 0.0 1.0 0.00 0.00 0.00 40 1021.2
20260506132540 59 264 0.0 3.0 0.00 0.00 0.00 40 1021.2
20260506132042 59 0 0.0 3.0 0.00 0.00 0.00 41 1021.2
20260506131600 58 0 0.0 1.0 0.00 0.00 0.00 42 1021.2
20260506131041 58 0 0.0 0.0 0.00 0.00 0.00 42 1021.2
20260506130540 58 0 0.0 2.0 0.00 0.00 0.00 42 1021.2
20260506130055 58 0 0.0 3.0 0.00 0.00 0.00 43 1021.2
20260506125539 58 0 0.0 3.0 0.00 0.00 0.00 42 1021.2
20260506125039 58 0 0.0 3.0 0.00 0.00 0.00 43 1021.2
20260506124552 57 0 0.0 4.0 0.00 0.00 0.00 44 1021.2
20260506124039 57 0 0.0 4.0 0.00 0.00 0.00 44 1021.2
20260506123539 55 283 0.0 4.0 0.00 0.00 0.00 47 1021.2
20260506123053 54 0 0.0 0.0 0.00 0.00 0.00 49 1021.2
20260506122539 55 0 0.0 0.0 0.00 0.00 0.00 48 1021.2
20260506122038 54 0 0.0 0.0 0.00 0.00 0.00 48 1021.2
20260506121552 55 0 0.0 0.0 0.00 0.00 0.00 48 1021.2
20260506121038 56 0 0.0 0.0 0.00 0.00 0.00 46 1021.2
20260506120541 56 0 0.0 0.0 0.00 0.00 0.00 46 1021.2
20260506120050 57 0 0.0 0.0 0.00 0.00 0.00 45 1021.2
20260506115539 58 0 0.0 0.0 0.00 0.00 0.00 43 1021.2
20260506115039 58 0 0.0 4.0 0.00 0.00 0.00 42 1021.2
20260506114550 59 0 0.0 4.0 0.00 0.00 0.00 42 1021.2
20260506114039 59 0 0.0 2.0 0.00 0.00 0.00 41 1021.2
20260506113539 59 223 0.0 1.0 0.00 0.00 0.00 41 1021.2
20260506113049 60 0 0.0 6.0 0.00 0.00 0.00 41 1021.2
20260506112541 60 0 0.0 6.0 0.00 0.00 0.00 40 1021.2
20260506112038 60 0 0.0 2.0 0.00 0.00 0.00 41 1021.2
20260506111552 61 120 0.0 4.0 0.00 0.00 0.00 40 1021.2
20260506111037 61 0 0.0 4.0 0.00 0.00 0.00 39 1021.2
20260506110538 61 0 0.0 7.0 0.00 0.00 0.00 39 1021.2
20260506110050 61 0 1.0 7.0 0.00 0.00 0.00 39 1021.2
20260506105539 61 237 0.0 8.0 0.00 0.00 0.00 39 1021.2
20260506105039 61 0 1.0 8.0 0.00 0.00 0.00 39 1021.2
20260506104555 61 225 2.0 9.0 0.00 0.00 0.00 39 1021.2
20260506104038 61 0 1.0 9.0 0.00 0.00 0.00 39 1021.2
20260506103538 61 267 2.0 9.0 0.00 0.00 0.00 39 1021.2
20260506103044 61 282 2.0 14.0 0.00 0.00 0.00 38 1021.2
20260506102538 61 223 4.0 14.0 0.00 0.00 0.00 38 1021.2
20260506102037 61 158 2.0 7.0 0.00 0.00 0.00 38 1021.2
20260506101549 61 232 3.0 8.0 0.00 0.00 0.00 39 1021.2
20260506101038 61 0 3.0 8.0 0.00 0.00 0.00 39 1021.2
20260506100539 61 261 3.0 8.0 0.00 0.00 0.00 38 1021.2
20260506100047 61 225 2.0 8.0 0.00 0.00 0.00 39 1021.2
20260506095538 61 231 0.0 7.0 0.00 0.00 0.00 39 1021.2
20260506095040 61 251 3.0 7.0 0.00 0.00 0.00 39 1021.2
20260506094604 61 263 2.0 6.0 0.00 0.00 0.00 39 1021.2
20260506094042 61 258 2.0 4.0 0.00 0.00 0.00 39 1021.2
20260506093540 61 0 0.0 4.0 0.00 0.00 0.00 39 1021.2
20260506093052 61 247 0.0 4.0 0.00 0.00 0.00 39 1021.2
20260506092538 60 216 1.0 4.0 0.00 0.00 0.00 39 1021.2
20260506092038 60 0 0.0 0.0 0.00 0.00 0.00 41 1021.2
20260506091551 60 0 0.0 0.0 0.00 0.00 0.00 42 1021.2
20260506091041 59 0 0.0 0.0 0.00 0.00 0.00 42 1021.2
20260506090538 58 0 0.0 0.0 0.00 0.00 0.00 44 1021.2
20260506090049 56 0 0.0 0.0 0.00 0.00 0.00 47 1021.2
20260506085538 56 0 0.0 0.0 0.00 0.00 0.00 49 1021.2
20260506085039 56 0 0.0 0.0 0.00 0.00 0.00 49 1021.2
20260506084550 56 0 0.0 0.0 0.00 0.00 0.00 47 1021.2
20260506084039 57 0 0.0 0.0 0.00 0.00 0.00 47 1021.2
20260506083543 58 0 0.0 0.0 0.00 0.00 0.00 46 1021.2
20260506083051 59 0 0.0 0.0 0.00 0.00 0.00 45 1021.2
20260506082538 60 0 0.0 0.0 0.00 0.00 0.00 43 1021.2
20260506082038 61 0 0.0 0.0 0.00 0.00 0.00 42 1021.2
20260506081551 61 0 0.0 0.0 0.00 0.00 0.00 40 1021.2
20260506081040 61 0 0.0 0.0 0.00 0.00 0.00 40 1021.2
20260506080541 61 0 0.0 0.0 0.00 0.00 0.00 39 1021.2
20260506073047 63 222 1.0 10.0 0.00 0.00 0.00 37 1021.2
20260506072543 63 198 3.0 10.0 0.00 0.00 0.00 37 1021.2
20260506072039 62 176 1.0 5.0 0.00 0.00 0.00 38 1021.2
20260506071551 61 228 1.0 9.0 0.00 0.00 0.00 39 1021.2
20260506071038 60 0 1.0 9.0 0.00 0.00 0.00 41 1021.2
20260506070540 57 0 0.0 0.0 0.00 0.00 0.00 45 1021.2
20260506062041 59 0 0.0 0.0 0.00 0.00 0.00 40 1021.2
20260506061545 60 0 0.0 0.0 0.00 0.00 0.00 39 1021.2
20260506061038 61 0 0.0 0.0 0.00 0.00 0.00 39 1021.2
20260506060539 62 0 0.0 0.0 0.00 0.00 0.00 38 1021.2
20260506051037 66 205 3.0 9.0 0.00 0.00 0.00 29 1021.2
20260506050537 66 198 1.0 7.0 0.00 0.00 0.00 29 1021.2
20260506045043 66 197 3.0 8.0 0.00 0.00 0.00 28 1021.2
20260506044559 66 191 2.0 6.0 0.00 0.00 0.00 28 1021.2
20260506044038 66 278 2.0 12.0 0.00 0.00 0.00 28 1021.2
20260506043537 66 218 4.0 12.0 0.00 0.00 0.00 28 1021.2
20260506043044 66 213 2.0 7.0 0.00 0.00 0.00 28 1021.2
20260506042538 66 0 2.0 7.0 0.00 0.00 0.00 28 1021.2
20260506042041 66 231 4.0 7.0 0.00 0.00 0.00 28 1021.2
20260506041550 66 219 2.0 7.0 0.00 0.00 0.00 29 1021.2
20260506041037 65 218 4.0 10.0 0.00 0.00 0.00 29 1021.2
20260506040538 65 225 4.0 10.0 0.00 0.00 0.00 29 1021.2
20260506040049 65 212 2.0 8.0 0.00 0.00 0.00 30 1021.2
20260506035544 64 179 3.0 8.0 0.00 0.00 0.00 30 1021.2
20260506035041 64 207 2.0 6.0 0.00 0.00 0.00 32 1021.2
20260506034551 62 196 2.0 6.0 0.00 0.00 0.00 33 1021.2
20260506034039 61 151 1.0 4.0 0.00 0.00 0.00 35 1021.2
20260506033537 59 0 0.0 4.0 0.00 0.00 0.00 39 1021.2
20260506033052 59 0 0.0 4.0 0.00 0.00 0.00 40 1021.2
20260506032542 58 0 0.0 0.0 0.00 0.00 0.00 40 1021.2
20260506032041 58 0 0.0 0.0 0.00 0.00 0.00 40 1021.2
20260506031557 59 0 0.0 0.0 0.00 0.00 0.00 40 1021.2
20260506031044 60 0 0.0 0.0 0.00 0.00 0.00 39 1021.2
20260506030541 60 0 0.0 0.0 0.00 0.00 0.00 37 1021.2
20260506030050 61 0 0.0 0.0 0.00 0.00 0.00 36 1021.2
20260506025538 62 0 0.0 0.0 0.00 0.00 0.00 34 1021.2
20260506025038 63 0 0.0 0.0 0.00 0.00 0.00 33 1021.2
20260506024558 65 0 0.0 1.0 0.00 0.00 0.00 32 1021.2
20260506024038 65 0 0.0 2.0 0.00 0.00 0.00 30 1021.2
20260506023538 66 0 0.0 5.0 0.00 0.00 0.00 30 1021.2
20260506023050 66 179 1.0 5.0 0.00 0.00 0.00 30 1021.2
20260506022540 66 0 0.0 2.0 0.00 0.00 0.00 29 1021.2
20260506022037 67 277 0.0 7.0 0.00 0.00 0.00 29 1021.2
20260506021553 67 284 0.0 7.0 0.00 0.00 0.00 28 1021.2
20260506021039 67 262 1.0 7.0 0.00 0.00 0.00 28 1021.2